Location: Newark
(35.2672°N, 80.7344°W)
Time: 21:02:24
(UTC+00:00)

SR - Pass Details

Date: 01 February 2020
Orbit: 575 x 880 km, 66.7° (Epoch: 26 February)

Event Time Altitude Azimuth Distance (km) Brightness Sun altitude
Exits shadow 10:26:17 11° 351° (N) 2,257 ? -23.9°
Maximum altitude 10:30:57 36° 56° (NE) 1,165 ? -23.0°
Drops below altitude 10° 10:35:31 10° 123° (ESE) 2,163 ? -22.1°
Sets 10:37:54 0° 132° (SE) 3,026 ? -21.6°
